K5HAS Weather Reports


Display with metric or nautical units.
time (UTC)temp
F
wind
direction
speed
MPH
gust
MPH
rain 1hr
in
rain 24hr
in
rain mn
in
humidity
%
barometer
mb
20260505211201 82 166 10.0 17.0 0.00 0.00 0.00 82 1005.9
20260505210912 82 161 9.0 17.0 0.00 0.00 0.00 82 1005.9
20260505205646 82 134 12.0 20.0 0.00 0.00 0.00 82 1006.1
20260505205147 82 161 13.0 21.0 0.00 0.00 0.00 82 1006.1
20260505204643 82 163 13.0 21.0 0.00 0.00 0.00 82 1006.1
20260505204407 82 181 12.0 21.0 0.00 0.00 0.00 82 1006.3
20260505203642 82 170 12.0 22.0 0.00 0.00 0.00 83 1006.3
20260505203138 82 161 12.0 22.0 0.00 0.00 0.00 83 1006.3
20260505202638 81 90 11.0 21.0 0.00 0.00 0.00 83 1006.6
20260505202137 81 172 11.0 20.0 0.00 0.00 0.00 83 1006.6
20260505201636 81 90 12.0 22.0 0.00 0.00 0.00 83 1006.6
20260505201136 82 90 13.0 22.0 0.00 0.00 0.00 83 1006.6
20260505200637 82 190 12.0 18.0 0.00 0.00 0.00 83 1006.6
20260505200138 82 90 11.0 18.0 0.00 0.00 0.00 83 1006.6
20260505195854 81 165 11.0 20.0 0.00 0.00 0.00 83 1006.7
20260505195122 81 90 12.0 21.0 0.00 0.00 0.00 83 1006.7
20260505194616 81 90 11.0 20.0 0.00 0.00 0.00 83 1006.7
20260505194338 81 165 10.0 21.0 0.00 0.00 0.00 83 1006.8
20260505193556 81 90 10.0 21.0 0.00 0.00 0.00 83 1006.8
20260505193046 81 201 8.0 18.0 0.00 0.00 0.00 83 1006.8
20260505192753 81 90 7.0 14.0 0.00 0.00 0.00 83 1007.0
20260505192026 81 90 7.0 14.0 0.00 0.00 0.00 83 1007.0
20260505191743 81 183 8.0 16.0 0.00 0.00 0.00 83 1007.0
20260505191017 81 178 10.0 17.0 0.00 0.00 0.00 83 1007.1
20260505190518 81 168 11.0 18.0 0.00 0.00 0.00 83 1007.1
20260505190017 81 188 11.0 18.0 0.00 0.00 0.00 83 1007.1
20260505185516 81 90 9.0 17.0 0.00 0.00 0.00 83 1007.2
20260505185017 81 90 10.0 19.0 0.00 0.00 0.00 84 1007.2
20260505184516 81 90 11.0 19.0 0.00 0.00 0.00 84 1007.2
20260505184016 81 163 10.0 19.0 0.00 0.00 0.00 84 1007.2
20260505183519 81 196 9.0 19.0 0.00 0.00 0.00 84 1007.2
20260505183014 81 90 8.0 15.0 0.00 0.00 0.00 84 1007.2
20260505182514 81 191 8.0 15.0 0.00 0.00 0.00 84 1007.2
20260505182014 81 180 9.0 15.0 0.00 0.00 0.00 84 1007.2
20260505181010 81 90 9.0 19.0 0.00 0.00 0.00 84 1007.3
20260505180501 81 149 9.0 20.0 0.00 0.00 0.00 84 1007.3
20260505175951 81 184 10.0 20.0 0.00 0.00 0.00 84 1007.5
20260505175444 80 205 9.0 16.0 0.00 0.00 0.00 84 1007.5
20260505174937 80 178 9.0 19.0 0.00 0.00 0.00 84 1007.5
20260505174431 80 179 9.0 19.0 0.00 0.00 0.00 85 1007.5
20260505173917 80 188 9.0 19.0 0.00 0.00 0.00 85 1007.5
20260505173423 80 190 9.0 18.0 0.00 0.00 0.00 85 1007.5
20260505173141 80 164 9.0 18.0 0.00 0.00 0.00 85 1007.7
20260505172420 80 178 9.0 18.0 0.00 0.00 0.00 85 1007.7
20260505172139 80 196 9.0 18.0 0.00 0.00 0.00 85 1007.7
20260505171420 80 182 9.0 18.0 0.00 0.00 0.00 85 1007.7
20260505170917 80 200 9.0 15.0 0.00 0.00 0.00 86 1007.7
20260505170418 80 201 10.0 9.0 0.00 0.00 0.00 86 1007.7
20260505165909 80 211 10.0 17.0 0.00 0.00 0.00 86 1007.7
20260505165406 80 198 9.0 16.0 0.00 0.00 0.00 86 1007.7
20260505164909 79 232 9.0 19.0 0.00 0.00 0.00 86 1007.7
20260505164625 79 203 9.0 19.0 0.00 0.00 0.00 86 1007.7
20260505163909 79 207 8.0 17.0 0.00 0.00 0.00 86 1007.7
20260505163407 79 234 7.0 17.0 0.00 0.00 0.00 87 1007.7
20260505162853 79 198 8.0 14.0 0.00 0.00 0.00 87 1007.7
20260505162606 78 191 8.0 17.0 0.00 0.00 0.00 87 1007.7
20260505161839 78 202 8.0 17.0 0.00 0.00 0.00 87 1007.7
20260505161333 78 234 8.0 17.0 0.00 0.00 0.00 87 1007.7
20260505160832 78 197 7.0 17.0 0.00 0.00 0.00 87 1007.7
20260505160333 78 202 7.0 15.0 0.00 0.00 0.00 87 1007.7
20260505153332 77 207 8.0 17.0 0.00 0.00 0.00 88 1007.6
20260505152831 77 186 8.0 17.0 0.00 0.00 0.00 88 1007.5
20260505152332 77 120 7.0 14.0 0.00 0.00 0.00 88 1007.5
20260505151832 77 184 7.0 13.0 0.00 0.00 0.00 88 1007.5
20260505151331 77 173 8.0 16.0 0.00 0.00 0.00 88 1007.3
20260505150821 77 182 9.0 17.0 0.00 0.00 0.00 88 1007.3
20260505150317 77 90 8.0 16.0 0.00 0.00 0.00 88 1007.3
20260505140641 76 194 8.0 16.0 0.00 0.00 0.00 88 1007.3
20260505140134 75 178 9.0 16.0 0.00 0.00 0.00 88 1007.3
20260505125041 74 202 7.0 14.0 0.00 0.00 0.00 88 1007.1
20260505124803 74 90 7.0 11.0 0.00 0.00 0.00 88 1007.1
20260505124042 74 90 7.0 13.0 0.00 0.00 0.00 88 1007.0
20260505123540 74 176 8.0 13.0 0.00 0.00 0.00 88 1007.0
20260505123038 74 164 8.0 13.0 0.00 0.00 0.00 88 1007.0
20260505122539 74 168 8.0 14.0 0.00 0.00 0.00 88 1006.6
20260505122040 73 90 8.0 14.0 0.00 0.00 0.00 88 1006.6
20260505121757 73 191 8.0 14.0 0.00 0.00 0.00 88 1006.6
20260505121245 73 166 7.0 14.0 0.00 0.00 0.00 88 1006.6
20260505120519 73 90 7.0 11.0 0.00 0.00 0.00 88 1006.6
20260505120018 73 163 7.0 11.0 0.00 0.00 0.00 88 1006.6
20260505115745 73 170 7.0 11.0 0.00 0.00 0.00 88 1006.7
20260505115016 73 152 6.0 11.0 0.00 0.00 0.00 88 1006.7
20260505114740 72 166 7.0 11.0 0.00 0.00 0.00 88 1006.7
20260505114016 72 90 6.0 11.0 0.00 0.00 0.00 88 1006.7
20260505113517 72 170 6.0 9.0 0.00 0.00 0.00 88 1006.7
20260505113236 72 155 6.0 8.0 0.00 0.00 0.00 88 1006.7
20260505112514 72 160 6.0 9.0 0.00 0.00 0.00 88 1006.7
20260505112234 72 157 6.0 10.0 0.00 0.00 0.00 88 1006.7
20260505111513 72 161 6.0 10.0 0.00 0.00 0.00 88 1006.7
20260505111012 72 90 6.0 10.0 0.00 0.00 0.00 88 1006.7
20260505110505 72 161 6.0 10.0 0.00 0.00 0.00 88 1006.7
20260505101843 72 166 7.0 12.0 0.00 0.00 0.00 87 1006.6
20260505101330 72 164 7.0 13.0 0.00 0.00 0.00 87 1006.8
20260505100820 72 90 7.0 13.0 0.00 0.00 0.00 87 1006.8
20260505100314 72 90 7.0 12.0 0.00 0.00 0.00 87 1006.8
20260505095803 72 164 6.0 13.0 0.00 0.00 0.00 87 1006.8
20260505095249 72 90 6.0 11.0 0.00 0.00 0.00 87 1006.8
20260505094743 72 161 6.0 11.0 0.00 0.00 0.00 87 1006.8
20260505094233 72 189 6.0 10.0 0.00 0.00 0.00 87 1007.1
20260505093950 72 186 6.0 13.0 0.00 0.00 0.00 87 1007.1
20260505093218 72 90 6.0 13.0 0.00 0.00 0.00 87 1007.1
20260505092202 72 90 6.0 10.0 0.00 0.00 0.00 87 1007.0
20260505091651 72 90 5.0 10.0 0.00 0.00 0.00 87 1007.0
20260505091137 72 170 5.0 10.0 0.00 0.00 0.00 87 1007.1
20260505090631 72 168 6.0 10.0 0.00 0.00 0.00 87 1007.1
20260505090125 72 175 5.0 9.0 0.00 0.00 0.00 87 1007.1
20260505085611 72 184 5.0 11.0 0.00 0.00 0.00 87 1007.1
20260505085101 72 174 5.0 11.0 0.00 0.00 0.00 87 1007.1
20260505084558 72 164 5.0 13.0 0.00 0.00 0.00 87 1007.1
20260505084059 72 216 5.0 13.0 0.00 0.00 0.00 87 1007.1
20260505083559 72 169 6.0 13.0 0.00 0.00 0.00 87 1007.1
20260505083324 72 90 6.0 13.0 0.00 0.00 0.00 87 1007.1
20260505082559 72 90 6.0 11.0 0.00 0.00 0.00 87 1007.1
20260505082056 71 183 5.0 10.0 0.00 0.00 0.00 87 1007.1
20260505081558 71 168 5.0 10.0 0.00 0.00 0.00 87 1007.1
20260505081307 71 171 5.0 10.0 0.00 0.00 0.00 86 1007.1
20260505080539 71 191 5.0 10.0 0.00 0.00 0.00 86 1007.1
20260505080038 71 168 6.0 10.0 0.00 0.00 0.00 86 1007.1
20260505075538 71 90 7.0 10.0 0.00 0.00 0.00 86 1007.2
20260505075036 71 90 7.0 9.0 0.00 0.00 0.00 86 1007.2
20260505074536 71 172 6.0 9.0 0.00 0.00 0.00 86 1007.2
20260505074036 71 172 5.0 9.0 0.00 0.00 0.00 86 1007.7
20260505073535 71 90 5.0 9.0 0.00 0.00 0.00 86 1007.7
20260505073036 71 164 5.0 10.0 0.00 0.00 0.00 86 1007.7
20260505072535 71 90 6.0 12.0 0.00 0.00 0.00 86 1007.8
20260505072035 71 166 6.0 12.0 0.00 0.00 0.00 86 1007.8
20260505071532 71 170 7.0 13.0 0.00 0.00 0.00 86 1007.8
20260505071031 71 159 7.0 13.0 0.00 0.00 0.00 86 1008.2
20260505070520 71 161 7.0 10.0 0.00 0.00 0.00 86 1008.2
20260505070010 71 168 6.0 10.0 0.00 0.00 0.00 86 1008.2
20260505065457 71 90 6.0 10.0 0.00 0.00 0.00 85 1008.3
20260505064950 71 159 7.0 11.0 0.00 0.00 0.00 85 1008.3
20260505064700 71 182 7.0 11.0 0.00 0.00 0.00 85 1008.6
20260505063930 71 159 7.0 11.0 0.00 0.00 0.00 85 1008.6
20260505063425 71 90 7.0 11.0 0.00 0.00 0.00 85 1008.6
20260505063135 71 167 7.0 10.0 0.00 0.00 0.00 85 1008.7
20260505062629 71 167 7.0 11.0 0.00 0.00 0.00 85 1008.7
20260505061851 71 162 8.0 11.0 0.00 0.00 0.00 85 1008.7
20260505061340 71 152 7.0 10.0 0.00 0.00 0.00 85 1008.7
20260505060835 71 90 7.0 10.0 0.00 0.00 0.00 85 1008.7
20260505060324 71 161 7.0 10.0 0.00 0.00 0.00 85 1008.7
20260505055818 71 90 6.0 9.0 0.00 0.00 0.00 85 1008.9
20260505055313 71 167 5.0 9.0 0.00 0.00 0.00 85 1008.9
20260505055026 71 168 5.0 9.0 0.00 0.00 0.00 85 1008.9
20260505054253 71 165 6.0 10.0 0.00 0.00 0.00 85 1009.1
20260505053746 71 166 5.0 10.0 0.00 0.00 0.00 85 1009.1
20260505053244 71 170 4.0 7.0 0.00 0.00 0.00 84 1009.1
20260505052746 71 90 4.0 8.0 0.00 0.00 0.00 84 1009.3
20260505052245 71 178 5.0 10.0 0.00 0.00 0.00 84 1009.3
20260505051745 71 171 7.0 10.0 0.00 0.00 0.00 84 1009.3
20260505050739 71 165 8.0 13.0 0.00 0.00 0.00 84 1009.1
20260505050503 70 158 8.0 12.0 0.00 0.00 0.00 84 1009.1
20260505041711 70 90 6.0 9.0 0.00 0.00 0.00 83 1009.3
20260505041210 71 171 7.0 11.0 0.00 0.00 0.00 83 1009.2
20260505040708 71 187 8.0 11.0 0.00 0.00 0.00 83 1009.2
20260505040206 70 164 8.0 11.0 0.00 0.00 0.00 83 1009.2
20260505035708 70 159 8.0 11.0 0.00 0.00 0.00 83 1009.3
20260505035435 71 162 7.0 11.0 0.00 0.00 0.00 82 1009.3
20260505034706 71 156 8.0 11.0 0.00 0.00 0.00 82 1009.3
20260505034206 71 160 8.0 11.0 0.00 0.00 0.00 82 1009.3
20260505033706 71 161 8.0 10.0 0.00 0.00 0.00 82 1009.3
20260505033210 71 155 8.0 11.0 0.00 0.00 0.00 82 1009.3
20260505032707 71 153 7.0 11.0 0.00 0.00 0.00 82 1009.3
20260505032206 71 165 8.0 11.0 0.00 0.00 0.00 81 1009.3
20260505031926 71 90 8.0 11.0 0.00 0.00 0.00 81 1009.3
20260505031158 71 159 8.0 11.0 0.00 0.00 0.00 81 1009.1
20260505030647 71 166 8.0 11.0 0.00 0.00 0.00 81 1009.1
20260505030137 71 90 8.0 11.0 0.00 0.00 0.00 81 1009.1
20260505025631 71 156 8.0 11.0 0.00 0.00 0.00 81 1009.1
20260505025121 71 157 8.0 12.0 0.00 0.00 0.00 81 1009.1
20260505024838 71 169 7.0 12.0 0.00 0.00 0.00 80 1009.1
20260505024318 71 160 6.0 10.0 0.00 0.00 0.00 80 1009.3
20260505023548 71 90 6.0 10.0 0.00 0.00 0.00 80 1009.3
20260505023036 72 159 6.0 10.0 0.00 0.00 0.00 80 1009.3
20260505022526 72 157 5.0 9.0 0.00 0.00 0.00 80 1009.3
20260505022013 72 166 5.0 9.0 0.00 0.00 0.00 80 1009.3
20260505021501 72 150 6.0 10.0 0.00 0.00 0.00 80 1009.3
20260505020945 73 160 7.0 11.0 0.00 0.00 0.00 79 1009.2
20260505020429 73 90 8.0 11.0 0.00 0.00 0.00 79 1009.2
20260505015926 73 132 7.0 12.0 0.00 0.00 0.00 79 1009.2
20260505015427 73 161 7.0 12.0 0.00 0.00 0.00 79 1009.2
20260505014926 73 161 8.0 12.0 0.00 0.00 0.00 79 1009.2
20260505014426 74 161 9.0 12.0 0.00 0.00 0.00 79 1008.8
20260505013927 74 162 9.0 14.0 0.00 0.00 0.00 79 1008.8
20260505013424 74 146 10.0 14.0 0.00 0.00 0.00 78 1008.8
20260505012926 74 90 10.0 14.0 0.00 0.00 0.00 78 1008.8
20260505012417 74 157 10.0 17.0 0.00 0.00 0.00 78 1008.8
20260505011907 75 155 10.0 17.0 0.00 0.00 0.00 78 1008.8
20260505011401 75 163 10.0 17.0 0.00 0.00 0.00 78 1008.7
20260505010851 75 90 11.0 17.0 0.00 0.00 0.00 78 1008.7
20260505010345 75 90 11.0 17.0 0.00 0.00 0.00 77 1008.7
20260505005842 75 139 11.0 20.0 0.00 0.00 0.00 77 1008.8
20260505005609 75 90 12.0 20.0 0.00 0.00 0.00 77 1008.8
20260505004841 75 90 13.0 21.0 0.00 0.00 0.00 77 1008.8
20260505004558 76 157 12.0 21.0 0.00 0.00 0.00 77 1008.7
20260505003841 76 164 11.0 17.0 0.00 0.00 0.00 77 1008.7
20260505003342 76 149 11.0 17.0 0.00 0.00 0.00 76 1008.7
20260505002842 76 162 11.0 23.0 0.00 0.00 0.00 76 1008.8
20260505002341 76 139 11.0 23.0 0.00 0.00 0.00 76 1008.8
20260505000837 76 90 11.0 20.0 0.00 0.00 0.00 75 1009.2
20260505000331 76 150 10.0 17.0 0.00 0.00 0.00 75 1009.2
20260504235821 77 153 10.0 17.0 0.00 0.00 0.00 75 1009.3
20260504235310 77 124 11.0 18.0 0.00 0.00 0.00 75 1009.3
20260504234808 77 120 11.0 18.0 0.00 0.00 0.00 75 1009.3
20260504234255 77 128 10.0 18.0 0.00 0.00 0.00 74 1009.5
20260504233749 77 145 10.0 18.0 0.00 0.00 0.00 74 1009.5
20260504233239 77 156 10.0 22.0 0.00 0.00 0.00 74 1009.5
20260504232731 78 159 11.0 22.0 0.00 0.00 0.00 74 1009.3
20260504232219 78 172 12.0 23.0 0.00 0.00 0.00 73 1009.3
20260504231929 78 90 13.0 23.0 0.00 0.00 0.00 73 1009.3
20260504231202 78 90 14.0 22.0 0.00 0.00 0.00 73 1009.5
20260504230431 78 161 13.0 24.0 0.00 0.00 0.00 73 1009.5
20260504225700 79 175 12.0 24.0 0.00 0.00 0.00 73 1009.6
20260504225420 79 90 13.0 23.0 0.00 0.00 0.00 73 1009.6
20260504224659 79 164 14.0 23.0 0.00 0.00 0.00 72 1009.6
20260504224159 79 197 15.0 22.0 0.00 0.00 0.00 72 1009.4
20260504223659 79 159 13.0 22.0 0.00 0.00 0.00 72 1009.4
20260504223200 79 153 11.0 17.0 0.00 0.00 0.00 72 1009.4
20260504222659 80 90 12.0 23.0 0.00 0.00 0.00 72 1009.5
20260504222159 80 136 13.0 23.0 0.00 0.00 0.00 71 1009.5
20260504221700 80 145 12.0 20.0 0.00 0.00 0.00 72 1009.5
20260504221154 81 90 12.0 23.0 0.00 0.00 0.00 72 1009.7
20260504220906 81 155 13.0 23.0 0.00 0.00 0.00 72 1009.7
20260504220128 81 145 14.0 23.0 0.00 0.00 0.00 72 1009.7
20260504215617 81 90 13.0 21.0 0.00 0.00 0.00 72 1009.9
20260504215111 81 90 12.0 21.0 0.00 0.00 0.00 72 1009.9
20260504214604 81 139 12.0 20.0 0.00 0.00 0.00 72 1009.9
20260504214335 81 90 13.0 21.0 0.00 0.00 0.00 72 1010.3
20260504213605 81 141 12.0 21.0 0.00 0.00 0.00 72 1010.3
20260504213107 80 141 11.0 18.0 0.00 0.00 0.00 72 1010.3
20260504212605 80 90 11.0 22.0 0.00 0.00 0.00 72 1010.5
20260504212341 80 157 12.0 22.0 0.00 0.00 0.00 72 1010.5
20260504211833 80 153 13.0 22.0 0.00 0.00 0.00 72 1010.5